Weather History for Rawlins, WY

Change the Weather History Date:

Sunday, April 21, 2013

  Actual Average Record
Temperature  
Mean Temperature 41 °F 42 °F  
Max Temperature 51 °F 55 °F 75 °F (1989)
Min Temperature 31 °F 28 °F 9 °F (1982)
Degree Days  
Heating Degree Days 24 23  
Month to date heating degree days 676 549  
Since 1 July heating degree days 7269 7521  
Cooling Degree Days 0 0  
Month to date cooling degree days 0 0  
Year to date cooling degree days 0 0  
Moisture  
Dew Point 24 °F    
Average Humidity 58    
Maximum Humidity 85    
Minimum Humidity 31    
Precipitation  
Precipitation 0.00 in 0.04 in 0.46 in (1970)
Month to date precipitation 0.51 0.71  
Year to date precipitation 1.19 2.17  
Sea Level Pressure  
Sea Level Pressure 29.98 in    
Wind  
Wind Speed 21 mph (WSW)    
Max Wind Speed 32 mph    
Max Gust Speed 41 mph    
Visibility 10 miles    
Events      
T = Trace of Precipitation, MM = Missing Value Source: NWS Daily Summary

Daily Weather History Graph

Daily Weather History Graph

Search for Another Location

Airport:

Trip Planner

Search our weather history database for the weather conditions in past years. The results will help you decide how hot, cold, wet, or windy it might be!

Date:

Astronomy

Apr. 21, 2013 Rise Set
Actual Time 6:18 AM MDT 7:56 PM MDT
Civil Twilight 5:49 AM MDT 8:26 PM MDT
Nautical Twilight 5:13 AM MDT 9:01 PM MDT
Astronomical Twilight 4:36 AM MDT 9:40 PM MDT
Moon 3:41 PM MDT (4/21) 3:46 AM MDT (4/21)
Length of Visible Light 14h 36m
Length of Day
13h 37m
Waxing Gibbous, 80% of the Moon is Illuminated
Apr 21
Waxing Gibbous
Apr 25
Full
May 2
Last Quarter
May 9
New
May 17
First Quarter

Hourly Weather History & Observations

Time (MDT) Temp. Windchill Dew Point Humidity Pressure Visibility Wind Dir Wind Speed Gust Speed Precip Events Conditions
12:53 AM 33.1 °F 23.9 °F 27.0 °F 78% 30.03 in 10.0 mi WSW 12.7 mph - N/A   Clear
1:53 AM 33.1 °F 21.2 °F 27.0 °F 78% 30.04 in 10.0 mi WSW 20.7 mph 29.9 mph N/A   Clear
2:53 AM 33.1 °F 23.4 °F 27.0 °F 78% 30.04 in 10.0 mi WSW 13.8 mph - N/A   Clear
3:53 AM 32.0 °F 21.6 °F 27.0 °F 82% 30.05 in 10.0 mi WSW 15.0 mph - N/A   Overcast
4:53 AM 30.9 °F 19.8 °F 27.0 °F 85% 30.04 in 10.0 mi WSW 16.1 mph - N/A   Clear
5:53 AM 32.0 °F 20.5 °F 26.1 °F 79% 30.05 in 10.0 mi WSW 18.4 mph - N/A   Clear
6:53 AM 32.0 °F 20.8 °F 26.1 °F 79% 30.07 in 10.0 mi WSW 17.3 mph - N/A   Clear
7:53 AM 33.1 °F 22.6 °F 26.1 °F 75% 30.09 in 10.0 mi WSW 16.1 mph - N/A   Clear
8:53 AM 37.0 °F 26.2 °F 26.1 °F 65% 30.06 in 10.0 mi WSW 21.9 mph 31.1 mph N/A   Clear
9:53 AM 39.0 °F 28.5 °F 26.1 °F 60% 30.04 in 10.0 mi WSW 23.0 mph 34.5 mph N/A   Clear
10:53 AM 43.0 °F 34.0 °F 28.0 °F 56% 30.02 in 10.0 mi WSW 21.9 mph 33.4 mph N/A   Clear
11:53 AM 45.0 °F 36.0 °F 28.0 °F 52% 30.01 in 10.0 mi WSW 25.3 mph 33.4 mph N/A   Partly Cloudy
12:53 PM 46.9 °F - 24.1 °F 41% 29.99 in 10.0 mi WSW 28.8 mph 40.3 mph N/A   Clear
1:53 PM 48.9 °F - 21.9 °F 35% 29.96 in 10.0 mi WSW 25.3 mph 31.1 mph N/A   Partly Cloudy
2:53 PM 48.0 °F - 19.0 °F 32% 29.96 in 10.0 mi WSW 26.5 mph 34.5 mph N/A   Clear
3:53 PM 48.9 °F - 19.9 °F 32% 29.94 in 10.0 mi WSW 21.9 mph 33.4 mph N/A   Mostly Cloudy
4:53 PM 48.0 °F - 21.0 °F 34% 29.92 in 10.0 mi SW 20.7 mph 29.9 mph N/A   Overcast
5:53 PM 46.0 °F 39.3 °F 21.0 °F 37% 29.93 in 10.0 mi West 16.1 mph 36.8 mph N/A   Overcast
6:53 PM 46.9 °F - 19.0 °F 33% 29.92 in 10.0 mi WSW 26.5 mph 39.1 mph N/A   Overcast
7:53 PM 45.0 °F 37.1 °F 21.9 °F 40% 29.92 in 10.0 mi WSW 19.6 mph 25.3 mph N/A   Partly Cloudy
8:53 PM 42.1 °F 35.2 °F 24.1 °F 49% 29.90 in 10.0 mi WSW 12.7 mph - N/A   Clear
9:53 PM 42.1 °F 32.3 °F 24.1 °F 49% 29.88 in 10.0 mi WSW 24.2 mph 29.9 mph N/A   Clear
10:53 PM 41.0 °F 32.5 °F 24.1 °F 51% 29.87 in 10.0 mi WSW 17.3 mph - N/A   Clear
11:53 PM 39.9 °F 30.2 °F 21.9 °F 49% 29.85 in 10.0 mi WSW 20.7 mph 27.6 mph N/A   Clear